Location: Unspecified
(43.4680°N, 87.1740°E)
Time: 04:53:23
(UTC+00:00)

Cosmos 1356 Rocket - Pass Details

Date: 01 August 2021
Orbit: 543 x 597 km, 81.2° (Epoch: 27 September)

Event Time Altitude Azimuth Distance (km) Brightness Sun altitude
Exits shadow 18:37:01 10° 75° (ENE) 1,810 6.1 -28.6°
Drops below altitude 10° 18:37:10 10° 73° (ENE) 1,821 6.2 -28.6°
Sets 18:41:04 0° 34° (NE) 2,714 7.8 -28.5°
